Regional Weather Roundup
Issued by NWS

Home | Current Version | Previous Version | Text Only | Print | Product List | Glossary On
Versions: 1 2 3 4 5 6 7 8 9 10 11 12 13 14 15 16 17 18 19 20 21 22 23 24 25 26 27 28 29 30 31 32 33 34 35 36 37 38 39 40 41 42 43 44 45 46 47 48 49 50
000
ASUS43 KMKX 291500
RWRWI

WISCONSIN REGIONAL WEATHER ROUNDUP
NATIONAL WEATHER SERVICE MILWAUKEE/SULLIVAN WI
1000 AM CDT TUE JUL 29 2014

NOTE: "FAIR" INDICATES FEW OR NO CLOUDS BELOW 12,000 FEET WITH NO
SIGNIFICANT WEATHER AND/OR OBSTRUCTIONS TO VISIBILITY.

WIZ001-002-006>008-014>016-023>028-291600-
NORTHWEST WISCONSIN

CITY           SKY/WX    TMP DP  RH WIND       PRES   REMARKS
SUPERIOR ARPT  PTSUNNY   64  58  80 SW7       30.06F
ASHLAND        PTSUNNY   65  57  75 SW6       30.06F
HAYWARD        MOSUNNY   67  54  63 W6        30.09F
SIREN          SUNNY     66  58  74 W8        30.10F
RICE LAKE      NOT AVBL
LADYSMITH      MOSUNNY   67  56  67 NW6       30.10S
EAU CLAIRE     NOT AVBL
MENOMONIE      SUNNY     70  57  64 W5        30.11S
NEW RICHMOND   SUNNY     68  58  68 NW8       30.12F
OSCEOLA        SUNNY     67  61  79 NW6       30.15F
$$

WIZ003>005-009-010-017-018-291600-
NORTH CENTRAL WISCONSIN

CITY           SKY/WX    TMP DP  RH WIND       PRES   REMARKS
WOODRUFF       MOSUNNY   65  57  76 NW9       30.06F
RHINELANDER    PTSUNNY   63  55  75 VRB3      30.07S
EAGLE RIVER    MOSUNNY   63  53  71 NW8       30.05F
LAND O LAKES   MOSUNNY   65  56  72 NW6       30.06S
PHILLIPS       SUNNY     64  57  78 N3        30.08S
TOMAHAWK       PTSUNNY   63  56  77 NW6       30.07F
MEDFORD        PTSUNNY   62  56  80 NW3       30.08S
MERRILL        PTSUNNY   63  56  79 N8        30.06F
$$

WIZ029-030-035-036-043>047-291600-
CENTRAL WISCONSIN

CITY           SKY/WX    TMP DP  RH WIND       PRES   REMARKS
WAUSAU         MOSUNNY   65  54  67 NW9       30.05S
MOSINEE        PTSUNNY   64  57  77 NW6       30.07S
MARSHFIELD     SUNNY     71  55  56 NW13      30.07F
STEVENS POINT  CLOUDY    64  55  72 W6        30.06F
WAUPACA        CLOUDY    69  55  61 NW7       30.05S
WAUTOMA        NOT AVBL
WISC RAPIDS    MOSUNNY   70  55  59 NW8       30.07F
CAMP DOUGLAS   NOT AVBL
$$

WIZ011>013-019>022-031-037>040-048>050-291600-
NORTHEAST WISCONSIN

CITY           SKY/WX    TMP DP  RH WIND       PRES   REMARKS
ANTIGO         PTSUNNY   62  56  79 NW10      30.06R
STURGEON BAY   MOSUNNY   64  54  68 NW6       30.01S
GREEN BAY      PTSUNNY   70  56  61 N7        30.02F
MANITOWOC      NOT AVBL
APPLETON       CLOUDY    66  54  63 NW8       30.04
CLINTONVILLE   CLOUDY    66  52  59 NW8       30.03S
OSHKOSH        PTSUNNY   69  55  60 NW7       30.04S
$$

WIZ032>034-041-042-053>061-291600-
SOUTHWEST WISCONSIN

CITY           SKY/WX    TMP DP  RH WIND       PRES   REMARKS
LA CROSSE      SUNNY     70  58  65 VRB7      30.10S
SPARTA         SUNNY     67  56  67 W6        30.10F
VIROQUA        FAIR      66  59  78 NW6       30.11S
BOSCOBEL       SUNNY     71  58  63 VRB3      30.09F
PRAIRIE DU CHI SUNNY     67  55  64 W5        30.10S
PLATTEVILLE    FAIR      68  58  71 NW7       30.11S
$$

WIZ056-057-062-063-064-067-068-291600-
SOUTH CENTRAL WISCONSIN

CITY           SKY/WX    TMP DP  RH WIND       PRES   REMARKS
BARABOO/DELLS  SUNNY     68  54  60 N5        30.08S
LONE ROCK      NOT AVBL
WATERTOWN      SUNNY     67  56  70 NW8       30.05F
MADISON        MOSUNNY   71  56  58 N8        30.07S
MIDDLETON      FAIR      69  55  61 N10G21    30.08S
MONROE         SUNNY     68  55  64 NW5       30.08F
JANESVILLE     SUNNY     72  54  53 NW8       30.06F
$$

WIZ051-052-058>065-066-070>072-291600-
SOUTHEAST WISCONSIN

CITY           SKY/WX    TMP DP  RH WIND       PRES   REMARKS
MILWAUKEE      MOSUNNY   69  55  60 W8        30.03S
WAUKESHA       SUNNY     66  55  68 W12       30.06S
MILWAUKEE/TIMM NOT AVBL
RACINE         MOSUNNY   69  56  62 W9        30.05S
BURLINGTON     SUNNY     66  57  71 NW10      30.05S
KENOSHA        MOSUNNY   69  58  67 NW9       30.04S
FOND DU LAC    SUNNY     68  54  60 N9        30.04F
SHEBOYGAN      SUNNY     68  57  68 VRB5      30.02F
WEST BEND      MOSUNNY   64  54  68 NW8       30.04S
JUNEAU         MOSUNNY   66  52  60 N7        30.07S
$$

LSZ147-162-291600-
LAKE SUPERIOR

STATION/POSITION TIME  TEMP    WIND        PRES    WAVE
                       AIR SEA DIR/SP/G            HT/PER
                 (UTC) (F)     (DEG/KT/KT) (MB)    (FT/S)
W MID LAKE BUOY  1350   49 44  250/  8/  8 1017.2R   1
PORT WING        1400   64     230/  5/  7 1018.3R
SAXON HARBOR     1400          190/  4/  8 1017.9S
$$

LMZ867-665-643>646-291600-
LAKE MICHIGAN

STATION/POSITION TIME  TEMP    WIND        PRES    WAVE
                       AIR SEA DIR/SP/G            HT/PER
                 (UTC) (F)     (DEG/KT/KT) (MB)    (FT/S)
N MID LAKE BUOY  1350   55 51  290/  6/  6 1014.7R   1
NORTHPORT PIER   1400   61     320/ 13/ 15 1015.6S
KEWAUNEE LAKESHO 1400   65     300/  8/ 10 1016.9R
SHEBOYGAN LAKESH 1400   65     320/  8/  9 1016.7S
PORT WASHINGTON  1400   67     300/  8/ 11 1016.9
ATWATER BUOY     1400   64     290/  6     1017.8R
MILWAUKEE LAKESH 1400   65     300/  6/  8   N/A
S MID LAKE BUOY  1350   61 60  290/ 10/ 12 1016.6R   1
KENOSHA   LAKESH 1400   66     280/  9/ 12 1016.6F
$$

TC  - TEMPERATURE IN CELSIUS
VSB - VISIBILITY IN STATUTE MILES
WCI - WIND CHILL INDEX
HX  - HEAT INDEX



USA.gov is the U.S. government's official web portal to all federal, state and local government web resources and services.